Regional Weather Roundup
Issued by NWS

Home | Current Version | Previous Version | Text Only | Print | Product List | Glossary Off
Versions: 1 2 3 4 5 6 7 8 9 10 11 12 13 14 15 16 17 18 19 20 21 22 23 24 25 26 27 28 29 30 31 32 33 34 35 36 37 38 39 40 41 42 43 44 45 46 47 48 49 50

000
ASUS45 KABQ 231801
RWRNM
NEW MEXICO REGIONAL WEATHER ROUNDUP
NATIONAL WEATHER SERVICE ALBUQUERQUE NM
1200 PM MDT SAT JUL 23 2016

NOTE: "FAIR" MEANS FEW OR NO CLOUDS BELOW 12,000 FEET AGL WITH NO
       SIGNIFICANT WEATHER OR OBSTRUCTIONS TO VISION.

      THIS PRODUCT IS RELEASED AS TWO VERSIONS.  ONE VERSION NEAR
      THE TOP OF THE HOUR CONTAINING PRELIMINARY DATA FROM ALBUQUERQUE
      AND OTHER STATIONS.  A FINAL VERSION WITH ADDITIONAL DATA IS
      ISSUED ABOUT 10 MINUTES AFTER THE HOUR.

NMZ501-503-504-510>518-231900-
NORTHWEST PLATEAU/NORTHCENTRAL MOUNTAINS

CITY           SKY/WX    TMP DP  RH WIND       PRES   REMARKS
FARMINGTON     FAIR      87  46  24 SW8       30.19F
6HR MIN TEMP:  64; 6HR MAX TEMP:  87;

LOS ALAMOS     FAIR      83  43  24 E3        30.31F
SANTA FE       FAIR      91  46  21 CALM      30.22F
6HR MIN TEMP:  70; 6HR MAX TEMP:  91;

TAOS           FAIR      84  41  21 S5        30.31F
ANGEL FIRE     FAIR      78  45  30 W13       30.41S

$$
NMZ402-403-502-505>509-231900-
WESTCENTRAL MOUNTAINS/SOUTHWEST MOUNTAINS

CITY           SKY/WX    TMP DP  RH WIND       PRES   REMARKS
GALLUP         FAIR      86  44  23 CALM      30.28F
6HR MIN TEMP:  60; 6HR MAX TEMP:  88;

GRANTS         FAIR      87  43  21 N9        30.28F
SILVER CITY    FAIR      92  45  19 E5        30.17F

$$
NMZ407-409-411-412-231900-
SOUTHERN DESERTS

CITY           SKY/WX    TMP DP  RH WIND       PRES   REMARKS
LORDSBURG      FAIR      91  46  21 SW6       30.10S
DEMING         FAIR      96  46  18 VRB3      30.07F
6HR MIN TEMP:  74; 6HR MAX TEMP:  96;

LAS CRUCES     FAIR      95  43  16 E10G17    30.10F
ALAMOGORDO     FAIR      95  46  18 SW15      30.08F
T OR C         FAIR      93  47  20 VRB3      30.10F
6HR MIN TEMP:  74; 6HR MAX TEMP:  93;


$$
NMZ519>523-231900-
CENTRAL VALLEYS/CENTRAL HIGHLANDS

CITY           SKY/WX    TMP DP  RH WIND       PRES   REMARKS
ALBUQUERQUE    FAIR      91  46  21 N8        30.16F
6HR MIN TEMP:  68; 6HR MAX TEMP:  91;

DOUBLE EAGLE   MOSUNNY   91  50  24 E5        30.21F
MORIARTY ARPT  FAIR      91  39  16 SW3       30.22F
6HR MIN TEMP:  59; 6HR MAX TEMP:  91;

CLINES CORNERS FAIR      88  45  22 NW13      30.29F
6HR MIN TEMP:  60; 6HR MAX TEMP:  88;

BELEN          FAIR      90  44  20 CALM      30.15F
6HR MIN TEMP:  65; 6HR MAX TEMP:  91;

SOCORRO        FAIR      93  46  19 N6        30.13F
6HR MIN TEMP:  70; 6HR MAX TEMP:  93;


$$
NMZ524>526-539-540-231900-
SOUTHCENTRAL MOUNTAINS

CITY           SKY/WX    TMP DP  RH WIND       PRES   REMARKS
RUIDOSO        NOT AVBL

$$
NMZ527>531-231900-
NORTHEAST HIGHLANDS/NORTHEAST PLAINS

CITY           SKY/WX    TMP DP  RH WIND       PRES   REMARKS
LAS VEGAS      FAIR      91  40  16 S12G21    30.24F
6HR MIN TEMP:  57; 6HR MAX TEMP:  91;

RATON          FAIR      91  46  21 VRB5      30.18F
CLAYTON        FAIR      96  49  20 S16G24    30.10S
6HR MIN TEMP:  72; 6HR MAX TEMP:  96;


$$
NMZ532>537-231900-
EASTCENTRAL PLAINS

CITY           SKY/WX    TMP DP  RH WIND       PRES   REMARKS
TUCUMCARI      FAIR     100  48  17 S16G24    30.04F HX  96
6HR MIN TEMP:  75; 6HR MAX TEMP: 100;

CANNON AFB     FAIR      93  51  23 S15G21    30.10F
6HR MIN TEMP:  67; 6HR MAX TEMP:  93;

CLOVIS AIRPORT FAIR      93  54  26 S15G25    30.10F

$$
NMZ028-029-538-231900-
SOUTHEAST PLAINS

CITY           SKY/WX    TMP DP  RH WIND       PRES   REMARKS
ROSWELL        FAIR      96  49  20 S14       30.05F
6HR MIN TEMP:  67; 6HR MAX TEMP:  96;

ARTESIA        FAIR      95  52  23 SE14      30.04F
CARLSBAD       FAIR      94  54  25 SE10      30.01F
6HR MIN TEMP:  69; 6HR MAX TEMP:  95;

HOBBS          SUNNY     91  50  24 SE13G18   30.08F


$$




USA.gov is the U.S. government's official web portal to all federal, state and local government web resources and services.